Content
SEND FEEDBACK

Daily
Averages
Monthly
Summary
United States of America

ST. LOUIS - SAINT LOUIS UNIVERSITY, MISSOURI


Home > North America > United States > Missouri
Elevation: 580 feet     Latitude: 38 38N     Longitude: 090 14W

WEATHER
 
SELECT A DAY
Number of Records: 186,223;   Date Range: 1/1/95 - 8/12/14
 
SHARE

PRINT THIS DATA

[ ← Previous Day ]
WEATHER ALMANAC - APRIL 17, 2013
[ Next Day → ]
[ °C ]   °F
Weather ElementAverageHighLow
Temperature63.2 °F82 °F (4:53 pm)50 °F (1:53 am)
Dewpoint56.5 °F66.9 °F (2:53 pm)46 °F (1:53 am)
Humidity80.4 %96 % (5:53 am)60 % (4:53 pm)
Barometer29.96 in30.12 in (1:53 am)29.70 in (10:53 pm)
Wind Speed8.8 mph16.1 mph (5:53 pm)
Wind Gust29.9 mph (10:53 pm)
Weather ElementAverage
Visibility6.3 mi
Wind DirectionESE (123.1 °)

Weather ElementTotal
Precipitation0.02 in
Cooling Degree Days1 (Base 65)
Growing Degree Days16 (Base 50)
Averaged from 26 records on April 17, 2013
WEATHER CONDITIONS BREAKOUT
WIND DIRECTION BREAKOUT
WEATHER BY HOUR - APRIL 17, 2013
[ °C ]   °F
Local TimeTemperatureDewpointHumidityBarometerVisibilityWind DirectionWind SpeedGust SpeedPrecipitationEventsConditions
1:53 AM50.0 °F46.0 °F86 %30.12 in10.0 miNNE (30°)4.6 mphOvercast
2:53 AM50.0 °F46.0 °F86 %30.11 in10.0 miNNE (30°)4.6 mphOvercast
3:53 AM51.1 °F46.9 °F86 %30.10 in8.0 miENE (60°)8.1 mphOvercast
4:44 AM50.0 °F48.2 °F94 %30.09 in2.5 miENE (70°)4.6 mphOvercast
4:53 AM50.0 °F48.0 °F93 %30.09 in2.5 miENE (60°)4.6 mphOvercast
5:32 AM50.0 °F48.2 °F94 %30.06 in3.0 miENE (60°)5.8 mph0.01 inOvercast
5:53 AM50.0 °F48.9 °F96 %30.07 in4.0 miESE (110°)3.5 mph0.01 inOvercast
6:53 AM51.1 °F48.9 °F92 %30.06 in3.0 miESE (110°)4.6 mphOvercast
7:21 AM51.8 °F48.2 °F88 %30.08 in2.5 miEast (90°)4.6 mphOvercast
7:53 AM52.0 °F50.0 °F93 %30.08 in1.8 miESE (110°)3.5 mphOvercast
8:53 AM54.0 °F52.0 °F93 %30.07 in2.0 miESE (110°)6.9 mphOvercast
9:53 AM55.0 °F53.1 °F93 %30.05 in2.5 miSSE (150°)6.9 mphOvercast
10:13 AM57.2 °F53.6 °F88 %30.04 in3.0 miSE (140°)8.1 mphOvercast
10:53 AM60.1 °F57.0 °F90 %30.03 in3.0 miSSE (150°)10.4 mphOvercast
11:53 AM66.0 °F61.0 °F84 %29.98 in4.0 miSSE (150°)10.4 mphHaze
12:30 PM69.8 °F62.6 °F78 %29.96 in6.0 miSSE (160°)8.1 mph17.3 mphHaze
12:53 PM71.1 °F64.0 °F78 %29.96 in7.0 miSSE (160°)9.2 mph16.1 mphScattered Clouds
1:53 PM75.9 °F66.0 °F71 %29.91 in9.0 miSouth (180°)12.7 mph21.9 mphClear
2:53 PM80.1 °F66.9 °F64 %29.87 in10.0 miSSE (160°)13.8 mph19.6 mphClear
4:53 PM82.0 °F66.9 °F60 %29.81 in10.0 miSSE (150°)13.8 mph21.9 mphPartly Cloudy
5:53 PM81.0 °F66.0 °F60 %29.77 in10.0 miSSE (150°)16.1 mph21.9 mphPartly Cloudy
6:53 PM79.0 °F64.0 °F60 %29.74 in10.0 miSSE (160°)9.2 mph18.4 mphClear
7:53 PM77.0 °F64.0 °F64 %29.73 in10.0 miSSE (150°)15.0 mph21.9 mphClear
8:53 PM75.9 °F64.0 °F67 %29.73 in10.0 miSSE (160°)11.5 mphClear
9:53 PM75.9 °F64.9 °F69 %29.72 in10.0 miSouth (170°)11.5 mph19.6 mphClear
10:53 PM77.0 °F64.0 °F64 %29.70 in10.0 miSouth (170°)16.1 mph29.9 mphClear
Hourly data recorded from KCPS, located miles away from St. Louis - Saint Louis University, Missouri







STORIES FROM OUR PARTNERS